Hourly Data Report for May 15, 2021

WINNIPEG THE FORKS
MANITOBA
Current Station Operator: ECCC - MSC

49°53'18.008" N
97°07'46.007" W
230.00 m
5023262
71579
XWN

Download Data

Hourly Data (May 2021)
Hourly Data Report for May 15, 2021
TIME
LST
Temp Definition
°C
Dew Point Definition
°C
Rel Hum Definition
%
Precip. Amount Definition
mm

Wind Dir Definition
10's deg

Wind Spd Definition
km/h
Visibility Definition
km
Stn Press Definition
kPa
Hmdx Definition


Wind Chill Definition


Weather Definition


00:00 12.1 6.3 68 0.0 20 3   98.97     LegendNANA
01:00 11.2 5.7 69 0.0 9 3   98.96     LegendNANA
02:00 9.9 5.4 74 0.0   0   98.96     LegendNANA
03:00 9.5 5.7 77 0.0 20 3   98.97     LegendNANA
04:00 9.4 5.7 78 0.0 20 3   98.96     LegendNANA
05:00 8.8 5.6 81 0.0 10 2   98.97     LegendNANA
06:00 9.2 5.9 80 0.0   0   99.00     LegendNANA
07:00 11.7 6.7 71 0.0 21 1   99.00     LegendNANA
08:00 14.1 7.2 63 0.0   0   99.00     LegendNANA
09:00 16.4 6.8 53 0.0 19 1   99.00     LegendNANA
10:00 18.7 5.8 43 0.0 9 3   98.98     LegendNANA
11:00 20.5 5.6 38 0.0 8 3   98.96     LegendNANA
12:00 21.5 3.7 31 0.0 21 5   98.90     LegendNANA
13:00 22.3 3.1 28 0.0 3 4   98.85     LegendNANA
14:00 23.7 3.5 27 0.0 21 3   98.77     LegendNANA
15:00 23.8 2.1 24 0.0 25 5   98.69     LegendNANA
16:00 23.7 2.9 26 0.0 17 2   98.63     LegendNANA
17:00 23.8 2.0 24 0.0 24 2   98.60     LegendNANA
18:00 15.8 9.3 65 4.0 26 10   98.71     LegendNANA
19:00 16.7 7.4 54 0.5 35 5   98.69     LegendNANA
20:00 16.4 8.5 60 0.0 8 3   98.70     LegendNANA
21:00 16.9 6.5 50 0.0 21 4   98.71     LegendNANA
22:00 16.0 7.1 56 0.0 4 1   98.67     LegendNANA
23:00 15.2 7.7 61 0.0 3 1   98.65     LegendNANA

Notes on Data Quality.

Legend

  • E = Estimated
  • M = Missing
  • NA = Not Available*
  • [empty] = Indicates an unobserved value
Date modified: